| time (UTC) | temp F | wind direction | speed MPH | gust MPH | rain 1hr in | rain 24hr in | rain mn in | humidity % | barometer mb |
| 20260510185400 | 69 | 59 | 8.0 | 16.0 | 0.00 | 0.00 | 0.00 | 77 | 1014.7 |
| 20260510185342 | 69 | 57 | 6.0 | 13.0 | 0.00 | 0.00 | 0.00 | 78 | 1014.5 |
| 20260510183400 | 69 | 70 | 7.0 | 13.0 | 0.00 | 0.00 | 0.00 | 77 | 1014.4 |
| 20260510182401 | 69 | 41 | 7.0 | 15.0 | 0.00 | 0.00 | 0.00 | 77 | 1014.4 |
| 20260510181844 | 68 | 71 | 9.0 | 18.0 | 0.00 | 0.00 | 0.00 | 77 | 1014.4 |
| 20260510180401 | 67 | 64 | 8.0 | 19.0 | 0.00 | 0.00 | 0.00 | 79 | 1014.3 |
| 20260510175359 | 67 | 35 | 10.0 | 19.0 | 0.00 | 0.00 | 0.00 | 79 | 1014.3 |
| 20260510174401 | 67 | 109 | 11.0 | 20.0 | 0.00 | 0.00 | 0.00 | 79 | 1014.3 |
| 20260510173359 | 68 | 82 | 8.0 | 14.0 | 0.00 | 0.00 | 0.00 | 77 | 1014.2 |
| 20260510172839 | 68 | 45 | 7.0 | 17.0 | 0.00 | 0.00 | 0.00 | 75 | 1014.5 |
| 20260510171358 | 68 | 64 | 8.0 | 17.0 | 0.00 | 0.00 | 0.00 | 75 | 1014.3 |
| 20260510170851 | 68 | 63 | 5.0 | 12.0 | 0.00 | 0.00 | 0.00 | 75 | 1014.4 |
| 20260510165359 | 68 | 51 | 5.0 | 18.0 | 0.00 | 0.00 | 0.00 | 73 | 1014.8 |
| 20260510164358 | 71 | 54 | 4.0 | 12.0 | 0.00 | 0.00 | 0.00 | 65 | 1014.7 |
| 20260510163356 | 78 | 355 | 1.0 | 5.0 | 0.00 | 0.00 | 0.00 | 65 | 1013.8 |
| 20260510162357 | 78 | 140 | 4.0 | 10.0 | 0.00 | 0.00 | 0.00 | 65 | 1013.1 |
| 20260510161356 | 79 | 209 | 6.0 | 15.0 | 0.00 | 0.00 | 0.00 | 65 | 1012.6 |
| 20260510160357 | 78 | 167 | 6.0 | 13.0 | 0.00 | 0.00 | 0.00 | 65 | 1012.2 |
| 20260510155356 | 78 | 5 | 5.0 | 15.0 | 0.00 | 0.00 | 0.00 | 65 | 1012.0 |
| 20260510154357 | 77 | 105 | 5.0 | 12.0 | 0.00 | 0.00 | 0.00 | 65 | 1012.0 |
| 20260510153354 | 77 | 168 | 5.0 | 12.0 | 0.00 | 0.00 | 0.00 | 64 | 1011.9 |
| 20260510152355 | 76 | 148 | 5.0 | 17.0 | 0.00 | 0.00 | 0.00 | 63 | 1011.6 |
| 20260510151357 | 76 | 176 | 5.0 | 14.0 | 0.00 | 0.00 | 0.00 | 63 | 1011.6 |
| 20260510150854 | 76 | 167 | 4.0 | 12.0 | 0.00 | 0.00 | 0.00 | 63 | 1011.8 |
| 20260510145845 | 75 | 156 | 4.0 | 13.0 | 0.00 | 0.00 | 0.00 | 62 | 1011.9 |
| 20260510144843 | 74 | 252 | 2.0 | 11.0 | 0.00 | 0.00 | 0.00 | 64 | 1012.0 |
| 20260510143354 | 74 | 140 | 2.0 | 9.0 | 0.00 | 0.00 | 0.00 | 65 | 1012.1 |
| 20260510142359 | 73 | 101 | 2.0 | 8.0 | 0.00 | 0.00 | 0.00 | 64 | 1012.1 |
| 20260510141354 | 73 | 155 | 2.0 | 11.0 | 0.00 | 0.00 | 0.00 | 65 | 1012.3 |
| 20260510140354 | 73 | 138 | 2.0 | 7.0 | 0.00 | 0.00 | 0.00 | 67 | 1012.5 |
| 20260510135844 | 72 | 98 | 2.0 | 10.0 | 0.00 | 0.00 | 0.00 | 68 | 1012.5 |
| 20260510134851 | 71 | 130 | 3.0 | 12.0 | 0.00 | 0.00 | 0.00 | 69 | 1012.6 |
| 20260510133355 | 71 | 82 | 3.0 | 9.0 | 0.00 | 0.00 | 0.00 | 70 | 1012.6 |
| 20260510132357 | 70 | 160 | 3.0 | 10.0 | 0.00 | 0.00 | 0.00 | 71 | 1012.6 |
| 20260510131354 | 70 | 103 | 3.0 | 7.0 | 0.00 | 0.00 | 0.00 | 72 | 1012.6 |
| 20260510130355 | 70 | 94 | 4.0 | 11.0 | 0.00 | 0.00 | 0.00 | 72 | 1012.5 |
| 20260510125350 | 69 | 81 | 3.0 | 11.0 | 0.00 | 0.00 | 0.00 | 72 | 1012.5 |
| 20260510124350 | 69 | 148 | 2.0 | 8.0 | 0.00 | 0.00 | 0.00 | 73 | 1012.0 |
| 20260510123350 | 69 | 110 | 3.0 | 10.0 | 0.00 | 0.00 | 0.00 | 74 | 1011.8 |
| 20260510122349 | 69 | 94 | 4.0 | 10.0 | 0.00 | 0.00 | 0.00 | 74 | 1011.8 |
| 20260510121348 | 69 | 66 | 5.0 | 11.0 | 0.00 | 0.00 | 0.00 | 75 | 1011.7 |
| 20260510120350 | 69 | 108 | 6.0 | 13.0 | 0.00 | 0.00 | 0.00 | 75 | 1011.4 |
| 20260510115348 | 69 | 110 | 6.0 | 11.0 | 0.00 | 0.00 | 0.00 | 74 | 1011.5 |
| 20260510114349 | 69 | 63 | 6.0 | 13.0 | 0.00 | 0.00 | 0.00 | 74 | 1011.5 |
| 20260510113352 | 69 | 82 | 6.0 | 13.0 | 0.00 | 0.00 | 0.00 | 74 | 1011.3 |
| 20260510112348 | 69 | 71 | 7.0 | 16.0 | 0.00 | 0.00 | 0.00 | 74 | 1011.3 |
| 20260510111833 | 69 | 91 | 7.0 | 14.0 | 0.00 | 0.00 | 0.00 | 75 | 1011.2 |
| 20260510110348 | 69 | 83 | 6.0 | 13.0 | 0.00 | 0.00 | 0.00 | 74 | 1011.1 |
| 20260510105349 | 69 | 96 | 8.0 | 15.0 | 0.00 | 0.00 | 0.00 | 73 | 1010.9 |
| 20260510104349 | 70 | 95 | 9.0 | 15.0 | 0.00 | 0.00 | 0.00 | 74 | 1010.7 |
| 20260510103350 | 70 | 80 | 7.0 | 13.0 | 0.00 | 0.00 | 0.00 | 75 | 1010.9 |
| 20260510102828 | 71 | 63 | 8.0 | 14.0 | 0.00 | 0.00 | 0.00 | 76 | 1010.9 |
| 20260510101346 | 71 | 107 | 9.0 | 16.0 | 0.00 | 0.00 | 0.00 | 76 | 1010.8 |
| 20260510100349 | 71 | 90 | 9.0 | 19.0 | 0.00 | 0.00 | 0.00 | 77 | 1010.6 |
| 20260510095831 | 71 | 69 | 9.0 | 16.0 | 0.00 | 0.00 | 0.00 | 78 | 1010.5 |
| 20260510094840 | 72 | 44 | 9.0 | 17.0 | 0.00 | 0.00 | 0.00 | 80 | 1010.3 |
| 20260510093347 | 73 | 76 | 8.0 | 13.0 | 0.00 | 0.00 | 0.00 | 82 | 1010.3 |
| 20260510092346 | 73 | 57 | 8.0 | 16.0 | 0.00 | 0.00 | 0.00 | 82 | 1010.1 |
| 20260510091347 | 74 | 62 | 5.0 | 12.0 | 0.00 | 0.00 | 0.00 | 81 | 1009.7 |
| 20260510090341 | 73 | 72 | 4.0 | 10.0 | 0.00 | 0.00 | 0.00 | 80 | 1009.7 |
| 20260510085343 | 74 | 57 | 3.0 | 11.0 | 0.00 | 0.00 | 0.00 | 78 | 1009.4 |
| 20260510084342 | 74 | 78 | 3.0 | 9.0 | 0.00 | 0.00 | 0.00 | 77 | 1009.6 |
| 20260510083340 | 74 | 48 | 2.0 | 5.0 | 0.00 | 0.00 | 0.00 | 75 | 1009.6 |
| 20260510082817 | 74 | 59 | 2.0 | 5.0 | 0.00 | 0.00 | 0.00 | 75 | 1009.7 |
| 20260510081340 | 74 | 29 | 1.0 | 5.0 | 0.00 | 0.00 | 0.00 | 75 | 1009.9 |
| 20260510080341 | 74 | 51 | 2.0 | 5.0 | 0.00 | 0.00 | 0.00 | 73 | 1009.3 |
| 20260510075342 | 74 | 74 | 3.0 | 6.0 | 0.00 | 0.00 | 0.00 | 73 | 1008.9 |
| 20260510074833 | 74 | 87 | 1.0 | 5.0 | 0.00 | 0.00 | 0.00 | 72 | 1008.6 |
| 20260510073337 | 74 | 93 | 2.0 | 6.0 | 0.00 | 0.00 | 0.00 | 71 | 1008.3 |
| 20260510072338 | 75 | 88 | 1.0 | 4.0 | 0.00 | 0.00 | 0.00 | 70 | 1008.1 |
| 20260510071338 | 75 | 119 | 0.0 | 3.0 | 0.00 | 0.00 | 0.00 | 70 | 1007.9 |
| 20260510070337 | 75 | 74 | 1.0 | 6.0 | 0.00 | 0.00 | 0.00 | 69 | 1008.0 |
| 20260510065336 | 76 | 78 | 1.0 | 4.0 | 0.00 | 0.00 | 0.00 | 69 | 1008.2 |
| 20260510064822 | 76 | 135 | 4.0 | 10.0 | 0.00 | 0.00 | 0.00 | 68 | 1008.4 |
| 20260510063337 | 75 | 82 | 7.0 | 21.0 | 0.00 | 0.00 | 0.00 | 69 | 1008.6 |
| 20260510062336 | 74 | 69 | 4.0 | 12.0 | 0.00 | 0.00 | 0.00 | 70 | 1008.9 |
| 20260510061337 | 75 | 48 | 3.0 | 9.0 | 0.00 | 0.00 | 0.00 | 69 | 1009.2 |
| 20260510060336 | 75 | 50 | 1.0 | 4.0 | 0.00 | 0.00 | 0.00 | 67 | 1009.2 |
| 20260510055337 | 76 | 83 | 1.0 | 8.0 | 0.00 | 0.00 | 0.00 | 63 | 1007.9 |
| 20260510054336 | 76 | 59 | 1.0 | 4.0 | 0.00 | 0.00 | 0.00 | 62 | 1007.4 |
| 20260510053337 | 77 | 133 | 1.0 | 4.0 | 0.00 | 0.00 | 0.00 | 61 | 1007.3 |
| 20260510052811 | 77 | 71 | 1.0 | 3.0 | 0.00 | 0.00 | 0.00 | 60 | 1007.2 |
| 20260510051337 | 77 | 108 | 1.0 | 6.0 | 0.00 | 0.00 | 0.00 | 60 | 1006.7 |
| 20260510050336 | 78 | 135 | 2.0 | 6.0 | 0.00 | 0.00 | 0.00 | 60 | 1006.6 |
| 20260510045337 | 78 | 111 | 2.0 | 7.0 | 0.00 | 0.00 | 0.00 | 60 | 1006.4 |
| 20260510044332 | 78 | 140 | 2.0 | 6.0 | 0.00 | 0.00 | 0.00 | 60 | 1006.3 |
| 20260510043335 | 78 | 161 | 3.0 | 8.0 | 0.00 | 0.00 | 0.00 | 60 | 1006.3 |
| 20260510042331 | 78 | 146 | 2.0 | 7.0 | 0.00 | 0.00 | 0.00 | 60 | 1006.4 |
| 20260510041330 | 79 | 146 | 2.0 | 4.0 | 0.00 | 0.00 | 0.00 | 60 | 1006.6 |
| 20260510040330 | 79 | 192 | 1.0 | 4.0 | 0.00 | 0.00 | 0.00 | 60 | 1006.7 |
| 20260510035330 | 79 | 107 | 1.0 | 6.0 | 0.00 | 0.00 | 0.00 | 59 | 1006.9 |
| 20260510034813 | 79 | 161 | 1.0 | 4.0 | 0.00 | 0.00 | 0.00 | 59 | 1006.7 |
| 20260510033814 | 79 | 71 | 1.0 | 4.0 | 0.00 | 0.00 | 0.00 | 59 | 1006.7 |
| 20260510032331 | 79 | 115 | 1.0 | 6.0 | 0.00 | 0.00 | 0.00 | 59 | 1007.0 |
| 20260510031325 | 79 | 60 | 1.0 | 4.0 | 0.00 | 0.00 | 0.00 | 60 | 1007.0 |
| 20260510030325 | 79 | 88 | 1.0 | 6.0 | 0.00 | 0.00 | 0.00 | 59 | 1007.0 |
| 20260510025324 | 79 | 76 | 1.0 | 7.0 | 0.00 | 0.00 | 0.00 | 58 | 1007.1 |
| 20260510024804 | 79 | 93 | 1.0 | 6.0 | 0.00 | 0.00 | 0.00 | 57 | 1006.9 |
| 20260510023325 | 80 | 81 | 2.0 | 6.0 | 0.00 | 0.00 | 0.00 | 55 | 1006.7 |
| 20260510022324 | 80 | 84 | 1.0 | 3.0 | 0.00 | 0.00 | 0.00 | 54 | 1006.5 |
| 20260510021326 | 80 | 94 | 0.0 | 4.0 | 0.00 | 0.00 | 0.00 | 53 | 1006.5 |
| 20260510020325 | 81 | 84 | 1.0 | 3.0 | 0.00 | 0.00 | 0.00 | 53 | 1006.3 |
| 20260510015328 | 81 | 76 | 1.0 | 4.0 | 0.00 | 0.00 | 0.00 | 52 | 1006.2 |
| 20260510014319 | 82 | 96 | 1.0 | 3.0 | 0.00 | 0.00 | 0.00 | 51 | 1006.1 |
| 20260510013804 | 83 | 84 | 1.0 | 3.0 | 0.00 | 0.00 | 0.00 | 50 | 1006.0 |
| 20260510012320 | 83 | 75 | 1.0 | 3.0 | 0.00 | 0.00 | 0.00 | 49 | 1006.0 |
| 20260510011318 | 83 | 86 | 1.0 | 4.0 | 0.00 | 0.00 | 0.00 | 49 | 1005.8 |
| 20260510010319 | 84 | 74 | 1.0 | 4.0 | 0.00 | 0.00 | 0.00 | 50 | 1005.6 |
| 20260510005805 | 85 | 84 | 3.0 | 8.0 | 0.00 | 0.00 | 0.00 | 50 | 1005.6 |
| 20260510004320 | 85 | 93 | 2.0 | 7.0 | 0.00 | 0.00 | 0.00 | 49 | 1005.5 |
| 20260510003318 | 85 | 82 | 2.0 | 8.0 | 0.00 | 0.00 | 0.00 | 49 | 1005.5 |
| 20260510002319 | 86 | 82 | 2.0 | 6.0 | 0.00 | 0.00 | 0.00 | 49 | 1005.5 |
| 20260510001314 | 86 | 90 | 3.0 | 7.0 | 0.00 | 0.00 | 0.00 | 49 | 1005.5 |
| 20260510000318 | 86 | 73 | 3.0 | 7.0 | 0.00 | 0.00 | 0.00 | 52 | 1005.5 |
| 20260509235744 | 86 | 61 | 4.0 | 10.0 | 0.00 | 0.00 | 0.00 | 51 | 1005.7 |
| 20260509234312 | 87 | 53 | 3.0 | 8.0 | 0.00 | 0.00 | 0.00 | 52 | 1005.7 |
| 20260509233312 | 87 | 63 | 1.0 | 4.0 | 0.00 | 0.00 | 0.00 | 52 | 1005.7 |
| 20260509232310 | 87 | 46 | 1.0 | 7.0 | 0.00 | 0.00 | 0.00 | 51 | 1005.9 |
| 20260509231748 | 88 | 53 | 2.0 | 8.0 | 0.00 | 0.00 | 0.00 | 49 | 1005.9 |
| 20260509230750 | 88 | 81 | 1.0 | 3.0 | 0.00 | 0.00 | 0.00 | 46 | 1005.9 |
| 20260509225316 | 89 | 73 | 0.0 | 2.0 | 0.00 | 0.00 | 0.00 | 44 | 1005.9 |
| 20260509224306 | 89 | 73 | 0.0 | 3.0 | 0.00 | 0.00 | 0.00 | 45 | 1005.9 |
| 20260509223306 | 89 | 191 | 1.0 | 5.0 | 0.00 | 0.00 | 0.00 | 44 | 1005.9 |
| 20260509222757 | 89 | 65 | 1.0 | 5.0 | 0.00 | 0.00 | 0.00 | 44 | 1005.9 |
| 20260509221307 | 89 | 93 | 1.0 | 3.0 | 0.00 | 0.00 | 0.00 | 46 | 1005.9 |
| 20260509220306 | 88 | 42 | 1.0 | 3.0 | 0.00 | 0.00 | 0.00 | 46 | 1006.0 |
| 20260509215306 | 87 | 146 | 2.0 | 7.0 | 0.00 | 0.00 | 0.00 | 46 | 1006.0 |
| 20260509214305 | 87 | 77 | 2.0 | 7.0 | 0.00 | 0.00 | 0.00 | 46 | 1006.1 |
| 20260509213304 | 88 | 64 | 1.0 | 5.0 | 0.00 | 0.00 | 0.00 | 47 | 1006.2 |
| 20260509212309 | 87 | 86 | 2.0 | 7.0 | 0.00 | 0.00 | 0.00 | 48 | 1006.3 |
| 20260509211300 | 87 | 93 | 2.0 | 7.0 | 0.00 | 0.00 | 0.00 | 48 | 1006.4 |
| 20260509210300 | 87 | 69 | 1.0 | 6.0 | 0.00 | 0.00 | 0.00 | 48 | 1006.6 |
| 20260509205306 | 87 | 206 | 1.0 | 5.0 | 0.00 | 0.00 | 0.00 | 51 | 1006.7 |
| 20260509204300 | 87 | 84 | 2.0 | 4.0 | 0.00 | 0.00 | 0.00 | 49 | 1006.9 |
| 20260509203302 | 87 | 63 | 2.0 | 6.0 | 0.00 | 0.00 | 0.00 | 49 | 1007.1 |
| 20260509202300 | 87 | 288 | 1.0 | 6.0 | 0.00 | 0.00 | 0.00 | 51 | 1007.2 |
| 20260509201300 | 87 | 104 | 1.0 | 4.0 | 0.00 | 0.00 | 0.00 | 49 | 1007.3 |
| 20260509200302 | 86 | 23 | 1.0 | 7.0 | 0.00 | 0.00 | 0.00 | 52 | 1007.4 |
| 20260509195717 | 86 | 0 | 0.0 | 3.0 | 0.00 | 0.00 | 0.00 | 50 | 1007.6 |
| 20260509195403 | 86 | 249 | 1.0 | 3.0 | 0.00 | 0.00 | 0.00 | 51 | 1007.4 |
| 20260509193753 | 86 | 90 | 1.0 | 4.0 | 0.00 | 0.00 | 0.00 | 52 | 1007.7 |
| 20260509192258 | 85 | 80 | 1.0 | 5.0 | 0.00 | 0.00 | 0.00 | 54 | 1007.8 |
| 20260509191751 | 85 | 91 | 2.0 | 5.0 | 0.00 | 0.00 | 0.00 | 53 | 1007.9 |
| 20260509190259 | 85 | 313 | 2.0 | 6.0 | 0.00 | 0.00 | 0.00 | 53 | 1007.9 |